Flag for Germany Weather past 2 weeks in Biberach an der Riss, Baden-Württemberg, Germany

Now
50 °F

Cool.


Feels Like: 50 °F
Forecast: 44 / 66 °F
Wind: No wind

Location: Laupheim Airport

Current Time: May 24, 2015 at 6:04:54 AM

Latest Report: May 24, 2015 at 5:20 AM


Visibility: 4 mi

Pressure: 30.04 "Hg

Humidity: 82%

Dew point: 45 °F

Location of Biberach an der RissLocation

Historic Weather in Biberach an der Riss — Graph

°F

Biberach an der Riss temperature yesterday

Maximum temperature yesterday: 61 °F (at 2:20 PM)
Minimum temperature yesterday: 45 °F (at 4:20 AM)
Average temperature yesterday: 54 °F

Past Weeks' High & Low Weather Summary

 TemperatureHumidityPressure
High81 °F (May 12, 4:20 PM)100% (May 11, 5:20 AM)30.36 "Hg (May 11, 5:20 AM)
Low39 °F (May 22, 4:20 AM)34% (May 12, 2:20 PM)29.77 "Hg (May 18, 5:20 PM)
Average56 °F75%30.09 "Hg
* Reported May 9 4:20 AM — May 24 4:20 AM, Biberach an der Riss, Weather by CustomWeather, © 2015

Note: Actual official high and low records may vary slightly from our data, if they occured in-between our weather recording intervals... More about our weather records

Advertising

Biberach an der Riss weather history for previous 24 hours

 ConditionsComfort  
Time TempWeatherWind HumidityBarometerVisibility
4:20 AM
Sun, May 24
50 °FCool.5 mph88%30.07 "Hg4 mi
3:20 AM50 °FCool.3 mph82%30.07 "Hg4 mi
2:20 AM52 °FCool.1 mph77%30.07 "Hg5 mi
1:20 AM52 °FCool.5 mph77%30.07 "Hg5 mi
12:20 AM54 °FCool.6 mph72%30.07 "Hg5 mi
11:20 PM
Sat, May 23
55 °FCool.2 mph67%30.07 "Hg5 mi
10:20 PM55 °FCool.1 mph67%30.07 "Hg5 mi
9:20 PM55 °FCool.2 mph63%30.04 "Hg6 mi
8:20 PM59 °FRefreshingly cool.3 mph55%30.04 "Hg6 mi
7:20 PM59 °FRefreshingly cool.3 mph55%30.04 "Hg6 mi
6:20 PM61 °FRefreshingly cool.3 mph45%30.04 "HgN/A
5:20 PM61 °FRefreshingly cool.7 mph48%30.04 "HgN/A
4:20 PM61 °FRefreshingly cool.7 mph48%30.04 "HgN/A
3:20 PM61 °FRefreshingly cool.8 mph48%30.07 "HgN/A
2:20 PM61 °FRefreshingly cool.8 mph45%30.07 "HgN/A
1:20 PM59 °FRefreshingly cool.7 mph55%30.07 "HgN/A
12:20 PM59 °FRefreshingly cool.12 mph48%30.09 "HgN/A
11:20 AM57 °FRefreshingly cool.10 mph55%30.09 "HgN/A
10:20 AM54 °FCool.5 mph72%30.09 "Hg5 mi
9:20 AM52 °FCool.5 mph82%30.09 "Hg4 mi
8:20 AM48 °FCool.3 mph87%30.12 "Hg4 mi
7:20 AM46 °FCool.No wind93%30.09 "Hg3 mi
6:20 AM45 °FQuite cool.No wind93%30.09 "Hg3 mi
Weather by CustomWeather, © 2015

See weather overviewHow to use our weather pages